Weather History for Vernal, UT

Change the Weather History Date:

Thursday, August 23, 2012

  Actual Average Record
Temperature  
Mean Temperature 73 °F 69 °F  
Max Temperature 87 °F 84 °F 95 °F (2011)
Min Temperature 58 °F 54 °F 35 °F (1968)
Degree Days  
Heating Degree Days 0 0  
Month to date heating degree days 0 0  
Since 1 June heating degree days 27 78  
Since 1 July heating degree days 0 6  
Cooling Degree Days 8 4  
Month to date cooling degree days 190 145  
Year to date cooling degree days 716 463  
Since 1 June cooling degree days 706 454  
Growing Degree Days 22 (Base 50)    
Moisture  
Dew Point 53 °F    
Average Humidity 54    
Maximum Humidity 78    
Minimum Humidity 29    
Precipitation  
Precipitation 0.00 in 0.03 in 0.62 in (1992)
Month to date precipitation 0.01 0.54  
Year to date precipitation 1.28 5.39  
Sea Level Pressure  
Sea Level Pressure 29.87 in    
Wind  
Wind Speed 3 mph (SW)    
Max Wind Speed 14 mph    
Max Gust Speed 35 mph    
Visibility 10 miles    
Events      
T = Trace of Precipitation, MM = Missing Value Source: NWS Daily Summary

Daily Weather History Graph

Daily Weather History Graph

Search for Another Location

Airport:

Trip Planner

Search our weather history database for the weather conditions in past years. The results will help you decide how hot, cold, wet, or windy it might be!

Date:

Astronomy

Aug. 23, 2012 Rise Set
Actual Time 6:37 AM MDT 8:03 PM MDT
Civil Twilight 6:08 AM MDT 8:31 PM MDT
Nautical Twilight 5:34 AM MDT 9:05 PM MDT
Astronomical Twilight 4:57 AM MDT 9:41 PM MDT
Moon 1:29 PM MDT 11:32 PM MDT
Length of Visible Light 14h 22m
Length of Day
13h 25m
Waxing Crescent, 41% of the Moon is Illuminated
Aug 23
Waxing Crescent
Aug 24
First Quarter
Aug 31
Full
Sep 8
Last Quarter
Sep 15
New

Hourly Weather History & Observations

Time (MDT) Temp. Heat Index Dew Point Humidity Pressure Visibility Wind Dir Wind Speed Gust Speed Precip Events Conditions
12:53 AM 62.1 °F - 55.0 °F 78% 29.93 in 10.0 mi Calm Calm - N/A   Clear
1:53 AM 62.1 °F - 55.0 °F 78% 29.93 in 10.0 mi West 3.5 mph - N/A   Clear
2:53 AM 61.0 °F - 53.1 °F 75% 29.93 in 10.0 mi Calm Calm - N/A   Clear
3:53 AM 60.1 °F - 53.1 °F 78% 29.94 in 10.0 mi Calm Calm - N/A   Clear
4:53 AM 60.1 °F - 52.0 °F 75% 29.94 in 10.0 mi Calm Calm - N/A   Overcast
5:53 AM 59.0 °F - 52.0 °F 78% 29.95 in 10.0 mi WNW 3.5 mph - N/A   Clear
6:53 AM 59.0 °F - 52.0 °F 78% 29.96 in 10.0 mi West 3.5 mph - N/A   Clear
7:53 AM 62.1 °F - 53.1 °F 72% 29.96 in 10.0 mi Calm Calm - N/A   Clear
8:53 AM 64.9 °F - 55.0 °F 70% 29.95 in 10.0 mi Calm Calm - N/A   Clear
9:53 AM 69.1 °F - 55.9 °F 63% 29.94 in 10.0 mi Calm Calm - N/A   Clear
10:53 AM 72.0 °F - 55.0 °F 55% 29.94 in 10.0 mi SSW 4.6 mph - N/A   Clear
11:53 AM 73.9 °F - 55.9 °F 53% 29.91 in 10.0 mi Variable 3.5 mph - N/A   Clear
12:53 PM 78.1 °F - 54.0 °F 43% 29.88 in 10.0 mi SSE 10.4 mph - N/A   Mostly Cloudy
1:53 PM 81.0 °F 80.5 °F 54.0 °F 39% 29.85 in 10.0 mi West 8.1 mph - N/A   Clear
2:53 PM 82.9 °F - 48.9 °F 31% 29.82 in 10.0 mi Variable 3.5 mph - N/A   Clear
3:53 PM 84.0 °F - 48.0 °F 28% 29.79 in 10.0 mi Variable 4.6 mph - N/A   Clear
4:53 PM 84.0 °F - 48.9 °F 29% 29.77 in 10.0 mi SW 6.9 mph - N/A   Clear
5:53 PM 81.0 °F - 48.9 °F 33% 29.77 in 10.0 mi SSW 3.5 mph - N/A   Clear
6:53 PM 79.0 °F - 54.0 °F 42% 29.77 in 10.0 mi South 4.6 mph - N/A   Clear
7:53 PM 77.0 °F - 48.0 °F 36% 29.77 in 10.0 mi SSW 5.8 mph - N/A   Clear
8:53 PM 75.0 °F - 51.1 °F 43% 29.79 in 10.0 mi SSW 3.5 mph - N/A   Clear
9:53 PM 72.0 °F - 51.1 °F 48% 29.81 in 10.0 mi Calm Calm - N/A   Clear
10:53 PM 71.1 °F - 54.0 °F 55% 29.81 in 10.0 mi SE 4.6 mph - N/A   Clear
11:53 PM 63.0 °F - 53.1 °F 70% 29.84 in 10.0 mi Calm Calm - N/A   Partly Cloudy